Location: Kawakawa
(35.3830°S, 174.0670°E)
Time: 17:58:33
(UTC+13:00)

A-11 Canister half - Pass Details

Date: 10 December 2019
Orbit: 1525 x 1684 km, 47.3° (Epoch: 21 January)

Event Time Altitude Azimuth Distance (km) Brightness Sun altitude
Rises 01:37:30 0° 236° (SW) 4,715 11.9 -31.6°
Reaches altitude 10° 01:40:32 10° 235° (SW) 3,743 11.3 -31.5°
Maximum altitude 01:50:04 85° 146° (SE) 1,594 8.9 -31.2°
Enters shadow 01:58:49 14° 57° (ENE) 3,510 10.7 -30.9°
Exits shadow 02:02:48 - 55° (NE) 4,771 11.4 -30.7°
Sets 02:03:02 0° 55° (NE) 4,845 11.4 -30.7°
